Regional Weather Roundup
Issued by NWS

Home | Current Version | Previous Version | Text Only | Print | Product List | Glossary Off
Versions: 1 2 3 4 5 6 7 8 9 10 11 12 13 14 15 16 17 18 19 20 21 22 23 24 25 26 27 28 29 30 31 32 33 34 35 36 37 38 39 40 41 42 43 44 45 46 47 48 49 50

222
ASUS43 KOAX 212310
RWRNE

WEATHER ROUNDUP FOR NEBRASKA
NATIONAL WEATHER SERVICE OMAHA NE
500 PM CST WED FEB 21 2018

NOTES: SATELLITE DATA IS BEING USED TO AUGMENT CLOUD COVER ABOVE
       12000 FEET.
       "FAIR" INDICATES FEW OR NO CLOUDS BELOW 12,000 FEET WITH NO
       SIGNIFICANT WEATHER AND/OR OBSTRUCTIONS TO VISIBILITY.


NEZ001>004-019>022-054>056-220000-
NEBRASKA PANHANDLE

CITY           SKY/WX    TMP DP  RH WIND       PRES   REMARKS
SCOTTSBLUFF    FAIR      27  11  51 SE9       30.20R WCI  18
ALLIANCE       FAIR      24  13  62 S14       30.20F WCI  12
CHADRON        FAIR      14   3  61 CALM      30.22F
GORDON         FAIR      26  12  56 S14       30.22F WCI  14
KIMBALL        FAIR      25  13  61 CALM      30.16S
SIDNEY         FAIR      29  11  47 S15       30.20S WCI  18
$$

NEZ057>060-069>072-079>082-220000-
SOUTHWEST NEBRASKA

CITY           SKY/WX    TMP DP  RH WIND       PRES   REMARKS
NORTH PLATTE   FAIR      24   9  52 S5        30.37S WCI  18
IMPERIAL       FAIR      26  10  50 SE10      30.31F WCI  16
LEXINGTON      FAIR      28   8  42 S8        30.41S WCI  20
MCCOOK         PTSUNNY   29   5  36 SE13      30.37S WCI  19
OGALLALA       FAIR      25  11  55 SE10      30.31S WCI  15
$$

NEZ005>010-023>029-035>040-094-220000-
NORTH CENTRAL NEBRASKA

CITY           SKY/WX    TMP DP  RH WIND       PRES   REMARKS
VALENTINE      FAIR      26  12  55 S15       30.33F WCI  14
AINSWORTH      FAIR      22  11  63 S15       30.37S WCI   8
BROKEN BOW     FAIR      25  10  53 SE7       30.39F WCI  17
O`NEILL        FAIR      22  10  59 S6        30.45S WCI  14
ORD            FAIR      25   8  48 SE7       30.44S WCI  17
THEDFORD       FAIR      24  11  56 S6        30.36S WCI  17
$$

NEZ041-046>049-061>064-073>077-083>087-220000-
SOUTH CENTRAL NEBRASKA

CITY           SKY/WX    TMP DP  RH WIND       PRES   REMARKS
GRAND ISLAND   FAIR      27   8  44 E9        30.48R WCI  18
AURORA         FAIR      26   6  41 E8        30.48S WCI  18
HASTINGS       PTSUNNY   27   4  37 E10G17    30.47S WCI  17
HEBRON         CLOUDY    29   6  38 E8        30.51R WCI  21
HOLDREGE       FAIR      29   4  34 SE10      30.42S WCI  20
KEARNEY        FAIR      29   7  39 SE7       30.45R WCI  22
YORK           FAIR      27   7  43 E7        30.51R WCI  19
$$

NEZ011>018-030>034-042>045-220000-
NORTHEAST NEBRASKA

CITY           SKY/WX    TMP DP  RH WIND       PRES   REMARKS
NORFOLK        FAIR      23  10  57 SE6       30.50R WCI  16
ALBION         FAIR      24   8  51 SE7       30.49S WCI  15
BLAIR          FAIR      25  17  71 NE8       30.54S WCI  16
COLUMBUS       FAIR      24  13  62 E6        30.54R WCI  17
FREMONT        FAIR      24  13  63 NE6       30.56S WCI  17
TEKAMAH        FAIR      25  13  60 CALM      30.58R
WAYNE          FAIR      22  10  60 E6        30.54R WCI  14
$$

NEZ050>053-065>068-078-088>093-220000-
SOUTHEAST NEBRASKA

CITY           SKY/WX    TMP DP  RH WIND       PRES   REMARKS
LINCOLN        PTSUNNY   25   9  50 E10       30.57R WCI  15
OMAHA EPPLEY   CLOUDY    26  13  57 NE8       30.57S WCI  18
BEATRICE       CLOUDY    27  13  55 E9        30.53R WCI  18
FALLS CITY     CLOUDY    28  18  66 NE8       30.53S WCI  20
NEBRASKA CITY  PTSUNNY   26  18  73 NE8       30.55S WCI  17
PLATTSMOUTH    FAIR      25  16  66 NE8       30.55S WCI  17
$$

NEZ044-045-051>053-067-220000-
OMAHA AREA

CITY           SKY/WX    TMP DP  RH WIND       PRES   REMARKS
OMAHA EPPLEY   CLOUDY    26  13  57 NE8       30.57S WCI  18
BLAIR          FAIR      25  17  71 NE8       30.54S WCI  16
FREMONT        FAIR      24  13  63 NE6       30.56S WCI  17
MILLARD        FAIR      27  12  54 E6        30.57S WCI  20
OFFUTT AFB     FAIR      26  14  60 NE8       30.56S WCI  17
PLATTSMOUTH    FAIR      25  16  66 NE8       30.55S WCI  17
WAHOO          FAIR      25  13  62 E8        30.56R WCI  16
$$




USA.gov is the U.S. government's official web portal to all federal, state and local government web resources and services.